Weather in Novyy

Russia / Republic of Adygea     45°00′19″N   38°58′36″E
temp.,
°C
wind,
m/s
gust,
m/s
humid.,
%
clouds,
%
prec.,
mm/h
press.,
hPa
HPBL,
m
18 april, sun
sun1800:00+10se3787100 0.0 1020241
03:00+10e4988100 0.1 1018337
06:00+9e3792100 0.1 1017299
09:00+10ene2493100 0.6 1017296
12:00+10ene2395100 0.8 1017219
15:00+11ese2492100 2.1 1017215
18:00+13ene248825 0.0 1016258
21:00+11ene2296100 0.0 101632
19 april, mon
mon1900:00+11sw1197100 0.1 101615
03:00+11wnw3599100 0.8 1016158
06:00+12wsw1298100 0.9 101628
09:00+13se1296100 1.5 101566
12:00+14sw2595100 1.0 1015388
15:00+14wnw3595100 1.3 1014324
18:00+13n2398100 1.3 1014124
21:00+13ene2499100 2.5 1014185
20 april, tue
tue2000:00+13ene3798100 2.0 1010247
03:00+13e21096100 2.9 1007303
06:00+12ene3797100 0.0 1003205
09:00+16ssw238522 0.0 1004312
12:00+19w696838 0.0 1004965
15:00+19wsw8125053 0.0 10061359
18:00+15ssw61161100 0.0 10081022
21:00+12sw8167290 0.0 10101007
21 april, wed
wed2100:00+11ssw815750 0.0 10121095
03:00+10sw6117575 0.0 10151054
06:00+10sw598071 0.0 1017790
09:00+13wsw576566 0.0 10181050
12:00+15wsw4655100 0.1 10191746
15:00+17w674613 0.1 10191883
18:00+15w45595 0.0 1020795
21:00+11w24740 0.0 1022135
22 april, thu
thu2200:00+9nw12835 0.0 102244
03:00+8n1183100 0.0 102229
06:00+8ene1282100 0.0 102354
09:00+13ene2269100 0.0 1023492
12:00+17e115934 0.0 10221106
15:00+18nne124935 0.4 10211572
18:00+16ne22660 1.3 1021457
21:00+12sw01820 1.8 102211